Location: Mapua
(41.2500°S, 173.1000°E)
Time: 02:11:41
(UTC+12:00)

ISS - Pass Details

Date: 31 March 2019
Orbit: 408 x 410 km, 51.6° (Epoch: 25 April)

Event Time Altitude Azimuth Distance (km) Brightness Sun altitude
Exits shadow 06:25:03 33° 265° (W) 725 -3.1 -15.1°
Maximum altitude 06:26:10 49° 211° (SSW) 547 -3.4 -14.9°
Drops below altitude 10° 06:29:29 10° 134° (SE) 1,510 -0.1 -14.3°
Sets 06:31:38 0° 128° (SE) 2,379 1.2 -13.9°
